| time (UTC) | temp F | wind direction | speed MPH | gust MPH | rain 1hr in | rain 24hr in | rain mn in | humidity % | barometer mb |
| 20260509022024 | 42 | 68 | 2.0 | 5.0 | 0.00 | 0.00 | 0.00 | 89 | 1022.7 |
| 20260509021025 | 42 | 68 | 1.0 | 3.0 | 0.00 | 0.00 | 0.00 | 88 | 1022.7 |
| 20260509020024 | 42 | 68 | 1.0 | 4.0 | 0.00 | 0.00 | 0.00 | 88 | 1022.7 |
| 20260509015024 | 42 | 68 | 2.0 | 5.0 | 0.00 | 0.00 | 0.00 | 88 | 1022.7 |
| 20260509014025 | 42 | 68 | 2.0 | 7.0 | 0.00 | 0.00 | 0.00 | 87 | 1022.8 |
| 20260509013024 | 42 | 68 | 2.0 | 4.0 | 0.00 | 0.00 | 0.00 | 88 | 1022.7 |
| 20260509012045 | 42 | 68 | 2.0 | 4.0 | 0.00 | 0.00 | 0.00 | 87 | 1022.6 |
| 20260509011024 | 42 | 68 | 1.0 | 3.0 | 0.00 | 0.00 | 0.00 | 86 | 1022.6 |
| 20260509010024 | 42 | 45 | 2.0 | 3.0 | 0.00 | 0.00 | 0.00 | 85 | 1022.6 |
| 20260509005025 | 43 | 68 | 1.0 | 3.0 | 0.00 | 0.00 | 0.00 | 83 | 1022.7 |
| 20260509004025 | 43 | 68 | 1.0 | 4.0 | 0.00 | 0.00 | 0.00 | 82 | 1022.8 |
| 20260509003024 | 44 | 68 | 1.0 | 4.0 | 0.00 | 0.00 | 0.00 | 81 | 1022.9 |
| 20260509002024 | 45 | 90 | 1.0 | 5.0 | 0.00 | 0.00 | 0.00 | 78 | 1022.9 |
| 20260509001024 | 46 | 90 | 2.0 | 5.0 | 0.00 | 0.00 | 0.00 | 77 | 1022.8 |
| 20260509000025 | 46 | 90 | 2.0 | 7.0 | 0.00 | 0.00 | 0.00 | 77 | 1022.9 |
| 20260508235024 | 46 | 90 | 2.0 | 7.0 | 0.00 | 0.00 | 0.00 | 76 | 1022.9 |
| 20260508234024 | 47 | 68 | 2.0 | 8.0 | 0.00 | 0.00 | 0.00 | 76 | 1022.9 |
| 20260508233105 | 47 | 90 | 4.0 | 10.0 | 0.00 | 0.00 | 0.00 | 75 | 1023.0 |
| 20260508232044 | 47 | 90 | 3.0 | 9.0 | 0.00 | 0.00 | 0.00 | 74 | 1023.0 |
| 20260508231024 | 48 | 90 | 3.0 | 7.0 | 0.00 | 0.00 | 0.00 | 73 | 1023.0 |
| 20260508230024 | 48 | 68 | 3.0 | 8.0 | 0.00 | 0.00 | 0.00 | 72 | 1023.0 |
| 20260508225025 | 48 | 90 | 4.0 | 9.0 | 0.00 | 0.00 | 0.00 | 72 | 1023.0 |
| 20260508224024 | 48 | 68 | 3.0 | 8.0 | 0.00 | 0.00 | 0.00 | 73 | 1023.0 |
| 20260508223024 | 47 | 90 | 4.0 | 8.0 | 0.00 | 0.00 | 0.00 | 73 | 1023.0 |
| 20260508222024 | 48 | 0.0 | 2.0 | 0.00 | 0.00 | 0.00 | 72 | 1023.0 | |
| 20260508221024 | 48 | 90 | 1.0 | 8.0 | 0.00 | 0.00 | 0.00 | 71 | 1023.0 |
| 20260508220024 | 48 | 68 | 4.0 | 9.0 | 0.00 | 0.00 | 0.00 | 70 | 1022.9 |
| 20260508215024 | 48 | 90 | 5.0 | 11.0 | 0.00 | 0.00 | 0.00 | 69 | 1022.9 |
| 20260508214024 | 48 | 90 | 4.0 | 9.0 | 0.00 | 0.00 | 0.00 | 69 | 1022.9 |
| 20260508213024 | 48 | 68 | 4.0 | 8.0 | 0.00 | 0.00 | 0.00 | 68 | 1022.8 |
| 20260508212024 | 48 | 68 | 4.0 | 10.0 | 0.00 | 0.00 | 0.00 | 68 | 1022.9 |
| 20260508211024 | 49 | 68 | 5.0 | 11.0 | 0.00 | 0.00 | 0.00 | 68 | 1022.8 |
| 20260508210024 | 49 | 68 | 4.0 | 8.0 | 0.00 | 0.00 | 0.00 | 68 | 1022.7 |
| 20260508205024 | 50 | 68 | 5.0 | 9.0 | 0.00 | 0.00 | 0.00 | 67 | 1022.7 |
| 20260508204044 | 50 | 90 | 4.0 | 8.0 | 0.00 | 0.00 | 0.00 | 66 | 1022.7 |
| 20260508203024 | 51 | 90 | 4.0 | 9.0 | 0.00 | 0.00 | 0.00 | 66 | 1022.7 |
| 20260508202024 | 51 | 90 | 4.0 | 9.0 | 0.00 | 0.00 | 0.00 | 65 | 1022.6 |
| 20260508201024 | 51 | 90 | 5.0 | 10.0 | 0.00 | 0.00 | 0.00 | 67 | 1022.6 |
| 20260508200024 | 52 | 90 | 5.0 | 11.0 | 0.00 | 0.00 | 0.00 | 67 | 1022.5 |
| 20260508195024 | 52 | 90 | 5.0 | 10.0 | 0.00 | 0.00 | 0.00 | 68 | 1022.4 |
| 20260508194024 | 52 | 90 | 5.0 | 9.0 | 0.00 | 0.00 | 0.00 | 68 | 1022.3 |
| 20260508193024 | 53 | 90 | 6.0 | 12.0 | 0.00 | 0.00 | 0.00 | 68 | 1022.1 |
| 20260508192024 | 53 | 90 | 6.0 | 10.0 | 0.00 | 0.00 | 0.00 | 68 | 1022.1 |
| 20260508191024 | 54 | 90 | 5.0 | 10.0 | 0.00 | 0.00 | 0.00 | 68 | 1021.9 |
| 20260508190044 | 54 | 90 | 6.0 | 13.0 | 0.00 | 0.00 | 0.00 | 68 | 1021.8 |
| 20260508185023 | 54 | 90 | 5.0 | 10.0 | 0.00 | 0.00 | 0.00 | 68 | 1021.7 |
| 20260508184024 | 54 | 90 | 5.0 | 10.0 | 0.00 | 0.00 | 0.00 | 67 | 1021.7 |
| 20260508183024 | 55 | 90 | 7.0 | 12.0 | 0.00 | 0.00 | 0.00 | 67 | 1021.5 |
| 20260508182023 | 55 | 90 | 7.0 | 12.0 | 0.00 | 0.00 | 0.00 | 67 | 1021.5 |
| 20260508181024 | 55 | 90 | 6.0 | 12.0 | 0.00 | 0.00 | 0.00 | 66 | 1021.4 |
| 20260508180023 | 56 | 90 | 7.0 | 13.0 | 0.00 | 0.00 | 0.00 | 66 | 1021.4 |
| 20260508175024 | 56 | 90 | 6.0 | 11.0 | 0.00 | 0.00 | 0.00 | 66 | 1021.2 |
| 20260508174023 | 56 | 68 | 6.0 | 11.0 | 0.00 | 0.00 | 0.00 | 64 | 1021.2 |
| 20260508173024 | 57 | 90 | 4.0 | 10.0 | 0.00 | 0.00 | 0.00 | 61 | 1021.1 |
| 20260508172023 | 57 | 90 | 5.0 | 9.0 | 0.00 | 0.00 | 0.00 | 58 | 1021.0 |
| 20260508171024 | 57 | 90 | 6.0 | 10.0 | 0.00 | 0.00 | 0.00 | 57 | 1020.9 |
| 20260508170024 | 57 | 90 | 5.0 | 10.0 | 0.00 | 0.00 | 0.00 | 58 | 1020.8 |
| 20260508165045 | 57 | 90 | 7.0 | 13.0 | 0.00 | 0.00 | 0.00 | 58 | 1020.8 |
| 20260508164025 | 58 | 90 | 6.0 | 12.0 | 0.00 | 0.00 | 0.00 | 55 | 1020.8 |
| 20260508163045 | 58 | 90 | 6.0 | 10.0 | 0.00 | 0.00 | 0.00 | 53 | 1020.7 |
| 20260508162105 | 58 | 0.0 | 2.0 | 0.00 | 0.00 | 0.00 | 52 | 1020.6 | |
| 20260508161106 | 58 | 90 | 4.0 | 8.0 | 0.00 | 0.00 | 0.00 | 52 | 1020.7 |
| 20260508160025 | 59 | 90 | 3.0 | 8.0 | 0.00 | 0.00 | 0.00 | 51 | 1020.7 |
| 20260508155025 | 58 | 90 | 4.0 | 8.0 | 0.00 | 0.00 | 0.00 | 51 | 1020.7 |
| 20260508154043 | 58 | 90 | 5.0 | 10.0 | 0.00 | 0.00 | 0.00 | 51 | 1020.6 |
| 20260508153026 | 59 | 90 | 4.0 | 10.0 | 0.00 | 0.00 | 0.00 | 51 | 1020.7 |
| 20260508152025 | 60 | 90 | 6.0 | 13.0 | 0.00 | 0.00 | 0.00 | 50 | 1020.7 |
| 20260508151026 | 59 | 135 | 1.0 | 7.0 | 0.00 | 0.00 | 0.00 | 53 | 1020.8 |
| 20260508150025 | 58 | 113 | 4.0 | 9.0 | 0.00 | 0.00 | 0.00 | 52 | 1020.9 |
| 20260508145025 | 60 | 113 | 1.0 | 6.0 | 0.00 | 0.00 | 0.00 | 52 | 1020.9 |
| 20260508144026 | 60 | 68 | 2.0 | 8.0 | 0.00 | 0.00 | 0.00 | 51 | 1020.9 |
| 20260508143025 | 61 | 135 | 6.0 | 11.0 | 0.00 | 0.00 | 0.00 | 52 | 1021.0 |
| 20260508142025 | 59 | 90 | 4.0 | 9.0 | 0.00 | 0.00 | 0.00 | 51 | 1021.0 |
| 20260508141025 | 58 | 113 | 6.0 | 11.0 | 0.00 | 0.00 | 0.00 | 53 | 1021.0 |
| 20260508140025 | 60 | 90 | 7.0 | 15.0 | 0.00 | 0.00 | 0.00 | 51 | 1021.2 |
| 20260508135025 | 59 | 113 | 6.0 | 10.0 | 0.00 | 0.00 | 0.00 | 53 | 1021.3 |
| 20260508134025 | 57 | 90 | 7.0 | 12.0 | 0.00 | 0.00 | 0.00 | 53 | 1021.4 |
| 20260508133045 | 59 | 90 | 6.0 | 9.0 | 0.00 | 0.00 | 0.00 | 52 | 1021.5 |
| 20260508132025 | 60 | 113 | 5.0 | 10.0 | 0.00 | 0.00 | 0.00 | 53 | 1021.5 |
| 20260508131025 | 60 | 113 | 5.0 | 12.0 | 0.00 | 0.00 | 0.00 | 51 | 1021.5 |
| 20260508130025 | 61 | 90 | 6.0 | 12.0 | 0.00 | 0.00 | 0.00 | 51 | 1021.6 |
| 20260508125025 | 59 | 90 | 9.0 | 14.0 | 0.00 | 0.00 | 0.00 | 51 | 1021.6 |
| 20260508124026 | 61 | 135 | 6.0 | 12.0 | 0.00 | 0.00 | 0.00 | 51 | 1021.6 |
| 20260508123025 | 57 | 90 | 8.0 | 14.0 | 0.00 | 0.00 | 0.00 | 55 | 1021.7 |
| 20260508122025 | 61 | 90 | 8.0 | 17.0 | 0.00 | 0.00 | 0.00 | 53 | 1021.7 |
| 20260508121045 | 60 | 68 | 5.0 | 15.0 | 0.00 | 0.00 | 0.00 | 52 | 1021.7 |
| 20260508120025 | 60 | 113 | 7.0 | 13.0 | 0.00 | 0.00 | 0.00 | 52 | 1021.6 |
| 20260508115025 | 59 | 113 | 9.0 | 16.0 | 0.00 | 0.00 | 0.00 | 51 | 1021.6 |
| 20260508114025 | 59 | 135 | 4.0 | 8.0 | 0.00 | 0.00 | 0.00 | 48 | 1021.6 |
| 20260508113045 | 59 | 90 | 5.0 | 14.0 | 0.00 | 0.00 | 0.00 | 47 | 1021.7 |
| 20260508112025 | 60 | 113 | 7.0 | 12.0 | 0.00 | 0.00 | 0.00 | 45 | 1021.7 |
| 20260508111025 | 60 | 90 | 8.0 | 16.0 | 0.00 | 0.00 | 0.00 | 43 | 1021.8 |
| 20260508110025 | 59 | 90 | 6.0 | 12.0 | 0.00 | 0.00 | 0.00 | 45 | 1021.8 |
| 20260508105025 | 59 | 90 | 6.0 | 15.0 | 0.00 | 0.00 | 0.00 | 44 | 1021.9 |
| 20260508104045 | 59 | 90 | 4.0 | 9.0 | 0.00 | 0.00 | 0.00 | 42 | 1021.9 |
| 20260508103105 | 58 | 68 | 9.0 | 14.0 | 0.00 | 0.00 | 0.00 | 44 | 1022.0 |
| 20260508102025 | 59 | 68 | 5.0 | 12.0 | 0.00 | 0.00 | 0.00 | 46 | 1022.0 |
| 20260508101025 | 59 | 90 | 4.0 | 9.0 | 0.00 | 0.00 | 0.00 | 49 | 1022.1 |
| 20260508100025 | 58 | 113 | 6.0 | 10.0 | 0.00 | 0.00 | 0.00 | 52 | 1022.0 |
| 20260508095045 | 58 | 113 | 3.0 | 7.0 | 0.00 | 0.00 | 0.00 | 54 | 1022.1 |
| 20260508094024 | 56 | 113 | 6.0 | 12.0 | 0.00 | 0.00 | 0.00 | 51 | 1022.1 |
| 20260508093024 | 56 | 135 | 3.0 | 8.0 | 0.00 | 0.00 | 0.00 | 52 | 1022.2 |
| 20260508092025 | 55 | 113 | 6.0 | 11.0 | 0.00 | 0.00 | 0.00 | 51 | 1022.2 |
| 20260508091045 | 55 | 113 | 6.0 | 11.0 | 0.00 | 0.00 | 0.00 | 51 | 1022.2 |
| 20260508090025 | 56 | 113 | 4.0 | 11.0 | 0.00 | 0.00 | 0.00 | 52 | 1022.2 |
| 20260508085025 | 55 | 90 | 5.0 | 11.0 | 0.00 | 0.00 | 0.00 | 49 | 1022.2 |
| 20260508084024 | 56 | 90 | 5.0 | 9.0 | 0.00 | 0.00 | 0.00 | 50 | 1022.2 |
| 20260508083024 | 56 | 113 | 6.0 | 11.0 | 0.00 | 0.00 | 0.00 | 54 | 1022.2 |
| 20260508082045 | 55 | 90 | 7.0 | 11.0 | 0.00 | 0.00 | 0.00 | 53 | 1022.2 |
| 20260508081025 | 54 | 90 | 6.0 | 11.0 | 0.00 | 0.00 | 0.00 | 53 | 1022.2 |
| 20260508080025 | 54 | 90 | 8.0 | 12.0 | 0.00 | 0.00 | 0.00 | 54 | 1022.2 |
| 20260508075024 | 53 | 90 | 8.0 | 13.0 | 0.00 | 0.00 | 0.00 | 55 | 1022.1 |
| 20260508074045 | 53 | 90 | 8.0 | 15.0 | 0.00 | 0.00 | 0.00 | 53 | 1022.0 |
| 20260508073045 | 53 | 90 | 4.0 | 10.0 | 0.00 | 0.00 | 0.00 | 57 | 1022.0 |
| 20260508072024 | 51 | 113 | 5.0 | 9.0 | 0.00 | 0.00 | 0.00 | 60 | 1022.1 |
| 20260508071025 | 52 | 68 | 1.0 | 5.0 | 0.00 | 0.00 | 0.00 | 62 | 1022.1 |
| 20260508070024 | 50 | 113 | 2.0 | 6.0 | 0.00 | 0.00 | 0.00 | 65 | 1022.0 |
| 20260508065045 | 49 | 113 | 3.0 | 6.0 | 0.00 | 0.00 | 0.00 | 66 | 1021.9 |
| 20260508064024 | 49 | 113 | 1.0 | 6.0 | 0.00 | 0.00 | 0.00 | 68 | 1021.8 |
| 20260508063024 | 48 | 0.0 | 0.0 | 0.00 | 0.00 | 0.00 | 68 | 1021.6 | |
| 20260508062024 | 47 | 113 | 1.0 | 8.0 | 0.00 | 0.00 | 0.00 | 67 | 1021.7 |
| 20260508061045 | 47 | 0.0 | 0.0 | 0.00 | 0.00 | 0.00 | 69 | 1021.7 | |
| 20260508060024 | 46 | 0.0 | 0.0 | 0.00 | 0.00 | 0.00 | 67 | 1021.6 | |
| 20260508055024 | 47 | 113 | 2.0 | 8.0 | 0.00 | 0.00 | 0.00 | 63 | 1021.4 |
| 20260508054024 | 47 | 113 | 2.0 | 7.0 | 0.00 | 0.00 | 0.00 | 65 | 1021.5 |
| 20260508053024 | 45 | 0.0 | 0.0 | 0.00 | 0.00 | 0.00 | 71 | 1021.5 | |
| 20260508052024 | 42 | 0.0 | 0.0 | 0.00 | 0.00 | 0.00 | 79 | 1021.4 | |
| 20260508051024 | 41 | 0.0 | 0.0 | 0.00 | 0.00 | 0.00 | 81 | 1021.4 | |
| 20260508050024 | 40 | 0.0 | 0.0 | 0.00 | 0.00 | 0.00 | 85 | 1021.5 | |
| 20260508045024 | 39 | 0.0 | 0.0 | 0.00 | 0.00 | 0.00 | 86 | 1021.3 | |
| 20260508044024 | 38 | 0.0 | 0.0 | 0.00 | 0.00 | 0.00 | 86 | 1021.2 | |
| 20260508043024 | 37 | 0.0 | 0.0 | 0.00 | 0.00 | 0.00 | 86 | 1021.1 | |
| 20260508042024 | 37 | 0.0 | 0.0 | 0.00 | 0.00 | 0.00 | 87 | 1021.1 | |
| 20260508041024 | 36 | 0.0 | 0.0 | 0.00 | 0.00 | 0.00 | 88 | 1021.0 | |
| 20260508040025 | 36 | 0.0 | 0.0 | 0.00 | 0.00 | 0.00 | 87 | 1021.0 | |
| 20260508035144 | 36 | 0.0 | 0.0 | 0.00 | 0.00 | 0.00 | 87 | 1021.1 | |
| 20260508034024 | 36 | 0.0 | 0.0 | 0.00 | 0.00 | 0.00 | 86 | 1021.1 | |
| 20260508033024 | 36 | 0.0 | 0.0 | 0.00 | 0.00 | 0.00 | 85 | 1021.0 | |
| 20260508032024 | 36 | 0.0 | 0.0 | 0.00 | 0.00 | 0.00 | 86 | 1020.9 | |
| 20260508031024 | 36 | 0.0 | 0.0 | 0.00 | 0.00 | 0.00 | 85 | 1020.8 | |
| 20260508030124 | 36 | 0.0 | 0.0 | 0.00 | 0.00 | 0.00 | 85 | 1020.8 | |
| 20260508025044 | 37 | 0.0 | 0.0 | 0.00 | 0.00 | 0.00 | 85 | 1020.8 | |
| 20260508024024 | 38 | 0.0 | 0.0 | 0.00 | 0.00 | 0.00 | 84 | 1020.7 | |
| 20260508023024 | 38 | 0.0 | 0.0 | 0.00 | 0.00 | 0.00 | 84 | 1020.7 |